Regional Weather Roundup
Issued by NWS

Home | Current Version | Previous Version | Text Only | Print | Product List | Glossary Off
Versions: 1 2 3 4 5 6 7 8 9 10 11 12 13 14 15 16 17 18 19 20 21 22 23 24 25 26 27 28

000
ASUS45 KTFX 162210
RWRMT
MONTANA REGIONAL WEATHER ROUNDUP
NATIONAL WEATHER SERVICE GREAT FALLS MT
400 PM MDT WED AUG 16 2017

NOTE: "FAIR" INDICATES FEW OR NO CLOUDS BELOW 12000 FEET WITH NO
SIGNIFICANT WEATHER AND/OR OBSTRUCTIONS TO VISIBILITY.

MTZ001>007-043-162300-
WEST OF THE DIVIDE

CITY           SKY/WX    TMP DP  RH WIND       PRES   REMARKS
KALISPELL      SUNNY     81  39  22 S14       29.93F
MISSOULA       MOSUNNY   84  28  13 MISG      29.96F
BUTTE          MOSUNNY   79  31  17 VRB6G20   30.05F
MULLAN PASS    SUNNY     69  32  25 VRB3      30.15F
ANACONDA         N/A     79  36  21 N8        30.02F
DEER LODGE       N/A     77  32  19 N3        30.04S
EUREKA           N/A     84  36  17 MISG      29.90F
HAMILTON         N/A     81  34  18 CALM      29.99F
LIBBY            N/A     84  36  17 S7        29.92S
RONAN            N/A     78  41  26 E3        30.02F
$$

MTZ008-052>055-162300-
SOUTHWEST MONTANA

CITY           SKY/WX    TMP DP  RH WIND       PRES   REMARKS
BOZEMAN        SUNNY     82  41  23 NW8       29.99F
DILLON         SUNNY     78  42  27 SW13      30.02F
W YELLOWSTONE  MOSUNNY   73  36  25 SW17G30   30.16F
ENNIS          CLOUDY    79  32  18 W7        30.09S
THREE FORKS      N/A     85  35  16 S8        29.97F
$$

MTZ009-010-012-014-046-048-049-054-162300-
EAST SLOPES AND CENTRAL MONTANA

CITY           SKY/WX    TMP DP  RH WIND       PRES   REMARKS
CUT BANK       CLOUDY    80  29  15 W12       29.93F
GREAT FALLS    SUNNY     84  23  10 NW12G21   29.92F
MALMSTROM AFB  SUNNY     83  26  12 W12       29.92F
HELENA         SUNNY     87  31  13 W17G25    29.94S
AUGUSTA          N/A     80  25  13 SW6       29.96F
BOWMANS CRNR     N/A     79  24  13 W12G22    29.95F
CHOTEAU          N/A     82  27  13 VRB7G14   29.95F
CONRAD           N/A     81  37  20 SW6       29.96F
FAIRFIELD        N/A     81  25  13 W10       29.93F
POWER            N/A     80  24  13 W9G18     29.93F
RAYNESFORD       N/A     82  23  11 NW13G20   29.94F
ULM              N/A     85  23  10 W14G21    29.92F
$$

MTZ011-013-016-021-045-047-050-051-162300-
NORTH CENTRAL MONTANA

CITY           SKY/WX    TMP DP  RH WIND       PRES   REMARKS
HAVRE          SUNNY     87  29  12 W14G22    29.84F
LEWISTOWN      SUNNY     81  30  15 NW9       29.95F
N BAR RANCH      N/A     81  27  13 N5G15     29.98F
CHINOOK          N/A     86  34  15 W12G20    29.84F
DENTON           N/A     83  28  13 NW10G24   29.88F
GEYSER           N/A     82  23  11 W13G28    29.94F
GRASS RANGE      N/A     83  25  12 W13G23    29.90F
JUDITH GAP       N/A     82  28  14 NW15G22   29.96F
WINIFRED         N/A     82  29  14 NW8       29.92F
$$

MTZ017>020-022>027-061-062-162300-
NORTHEAST MONTANA

CITY           SKY/WX    TMP DP  RH WIND       PRES   REMARKS
GLASGOW        MOSUNNY   88  42  20 S13G18    29.81F
JORDAN           N/A     90  27  10 W15G26    29.83F
SIDNEY         SUNNY     85  50  29 S5        29.88F
WOLF POINT     SUNNY     89  44  20 E13G18    29.84F
MALTA          SUNNY     90  41  18 W10       29.82S
PLENTYWOOD       N/A     84  39  20 CALM      29.88F
POPLAR           N/A     84  43  23 CALM      29.86F
SCOBEY           N/A     82  45  27 E3        29.86F
$$

MTZ028>42-056>058-162300-
SOUTHCENTRAL AND SOUTHEAST MONTANA

CITY           SKY/WX    TMP DP  RH WIND       PRES   REMARKS
BAKER          MOSUNNY   82  42  24 SE7       29.94F
BILLINGS       MOSUNNY   87  36  16 W8        29.91F
LIVINGSTON     SUNNY     85  38  18 W17G28    29.97F
MILES CITY     MOSUNNY   89  37  16 CALM      29.87F
BIG TIMBER     SUNNY     84  34  16 W17       29.98F
EKALAKA          N/A     78  45  31 SE6       29.96F
FORSYTH          N/A     90  36  14 CALM      29.86F
HARLOWTON        N/A     84  27  12 MISG      29.95F
LAUREL           N/A     88  39  17 W10       29.92
$$

REGIONAL REPORTS...DAKOTAS

CITY           SKY/WX    TMP DP  RH WIND       PRES   REMARKS
WILLISTON      SUNNY     83  54  36 NW5       29.89F
MINOT          SUNNY     80  49  33 NW13G20   29.90F
DICKINSON      SUNNY     77  50  38 N5        29.93S
BEACH          PTSUNNY   79  46  31 SE13      29.96S
CROSBY           N/A     81  46  30 SE7       29.89F
TIOGA            N/A     77  46  33 CALM      29.93F
WATFORD CITY     N/A     82  52  34 CALM      29.90S
BISMARCK       CLOUDY    77  55  46 N9        29.91F
GRAND FORKS    CLOUDY    69  65  86 N12       29.84S
FARGO          LGT RAIN  68  67  96 N7        29.82S
BUFFALO SD       N/A     81  47  30 CALM      29.91F
RAPID CITY     CLOUDY    80  47  31 NW13      29.99F
$$

REGIONAL REPORTS...WYOMING/IDAHO/WASHINGTON

CITY           SKY/WX    TMP DP  RH WIND       PRES   REMARKS
GILLETTE       SUNNY     81  27  14 E7        30.01F
SHERIDAN       SUNNY     84  34  16 CALM      29.97F
BUFFALO WY     CLOUDY    80  34  19 S10       30.05F
CODY           CLOUDY    79  33  19 W6        30.04S
YELLOWSTONE LA   N/A     58  44  60 CALM      30.26F
IDAHO FALLS    MOSUNNY   82  36  19 SW9G22    30.06F
SALMON         MOSUNNY   83  39  21 NW6       29.97F
BOISE          SUNNY     87  40  19 W12G21    29.98F
SPOKANE        MOSUNNY   82  38  20 SW14G21   29.98F
$$

REGIONAL REPORTS...ALBERTA

CITY           SKY/WX    TMP DP  RH WIND       PRES   REMARKS
EDMONTON       MOSUNNY   72  46  40 W8        29.83S
CALGARY        PTSUNNY   75  37  25 E9        29.87F SMOKE
LETHBRIDGE     PTSUNNY   82  36  18 SW15G22   29.85F
MEDICINE HAT   MOSUNNY   82  37  20 W13G22    29.83F
$$

REGIONAL REPORTS...SASKATCHEWAN

CITY           SKY/WX    TMP DP  RH WIND       PRES   REMARKS
SWIFT CURRENT  PTSUNNY   77  45  31 E8        29.85F
REGINA         MOSUNNY   79  39  24 NE7       29.88S
SASKATOON      PTSUNNY   73  41  31 NW7       29.88F
$$




USA.gov is the U.S. government's official web portal to all federal, state and local government web resources and services.